Zurück zum Katalog

MISR-C-2

AktivWissenschaftVLEO
NORAD 68633·PAYLOAD·🇺🇸 United States

Gestartet Apr 7, 2026 von Vandenberg Space Force Base

Loading…

Nächste Überflüge (nächste 24 Stunden)

TLE

AktuellSource: Space-Track

Epoche: Sep 14, 2026, 11:57 UTC

1 68633U 26074G   26257.49813829  .00009871  00000-0  36786-3 0  9999
2 68633  60.0214 193.7234 0035196  91.7336 268.7778 15.27507258 24422

Verfolge MISR-C-2 in Echtzeit mit AllMySat

Download on the App Store